| time (UTC) | temp F | wind direction | speed MPH | gust MPH | rain 1hr in | rain 24hr in | rain mn in | humidity % | barometer mb |
| 20260507070403 | 46 | 88 | 3.0 | 4.0 | 0.00 | 0.06 | 0.00 | 85 | 1017.3 |
| 20260507070203 | 46 | 88 | 3.0 | 4.0 | 0.00 | 0.06 | 0.00 | 85 | 1017.4 |
| 20260507070005 | 46 | 82 | 3.0 | 4.0 | 0.00 | 0.07 | 0.00 | 85 | 1017.2 |
| 20260507065803 | 46 | 84 | 3.0 | 4.0 | 0.00 | 0.07 | 0.00 | 85 | 1017.2 |
| 20260507065603 | 46 | 83 | 3.0 | 4.0 | 0.00 | 0.07 | 0.00 | 85 | 1017.2 |
| 20260507065403 | 46 | 83 | 3.0 | 4.0 | 0.00 | 0.07 | 0.00 | 85 | 1017.2 |
| 20260507065203 | 46 | 84 | 3.0 | 5.0 | 0.00 | 0.07 | 0.00 | 85 | 1017.3 |
| 20260507065003 | 46 | 88 | 3.0 | 5.0 | 0.00 | 0.07 | 0.00 | 85 | 1017.1 |
| 20260507064803 | 46 | 84 | 3.0 | 4.0 | 0.00 | 0.08 | 0.00 | 86 | 1017.1 |
| 20260507064603 | 46 | 81 | 3.0 | 4.0 | 0.00 | 0.08 | 0.00 | 86 | 1017.3 |
| 20260507064403 | 46 | 82 | 3.0 | 4.0 | 0.00 | 0.08 | 0.00 | 85 | 1017.1 |
| 20260507064218 | 46 | 85 | 3.0 | 4.0 | 0.00 | 0.09 | 0.00 | 86 | 1016.9 |
| 20260507064203 | 46 | 85 | 3.0 | 4.0 | 0.00 | 0.09 | 0.00 | 86 | 1016.9 |
| 20260507063803 | 46 | 88 | 3.0 | 4.0 | 0.00 | 0.09 | 0.00 | 86 | 1017.0 |
| 20260507063603 | 46 | 90 | 3.0 | 4.0 | 0.00 | 0.10 | 0.00 | 86 | 1017.0 |
| 20260507063203 | 46 | 86 | 3.0 | 6.0 | 0.00 | 0.11 | 0.00 | 86 | 1017.1 |
| 20260507063003 | 46 | 81 | 3.0 | 5.0 | 0.00 | 0.11 | 0.00 | 86 | 1017.1 |
| 20260507062803 | 46 | 86 | 3.0 | 4.0 | 0.00 | 0.11 | 0.00 | 86 | 1016.9 |
| 20260507062603 | 46 | 87 | 3.0 | 5.0 | 0.00 | 0.12 | 0.00 | 86 | 1016.8 |
| 20260507062403 | 46 | 98 | 3.0 | 6.0 | 0.00 | 0.13 | 0.00 | 86 | 1016.9 |
| 20260507062218 | 46 | 97 | 3.0 | 5.0 | 0.00 | 0.13 | 0.00 | 86 | 1016.8 |
| 20260507062203 | 46 | 98 | 3.0 | 5.0 | 0.00 | 0.13 | 0.00 | 86 | 1016.8 |
| 20260507061803 | 46 | 100 | 3.0 | 3.0 | 0.00 | 0.14 | 0.00 | 87 | 1017.0 |
| 20260507061603 | 46 | 104 | 3.0 | 4.0 | 0.00 | 0.15 | 0.00 | 86 | 1016.9 |
| 20260507061418 | 46 | 101 | 3.0 | 4.0 | 0.00 | 0.15 | 0.00 | 86 | 1016.8 |
| 20260507061003 | 46 | 98 | 3.0 | 4.0 | 0.00 | 0.17 | 0.00 | 87 | 1016.6 |
| 20260507060803 | 46 | 98 | 3.0 | 6.0 | 0.00 | 0.17 | 0.00 | 86 | 1016.6 |
| 20260507060603 | 46 | 90 | 3.0 | 3.0 | 0.00 | 0.17 | 0.00 | 86 | 1016.5 |
| 20260507060403 | 46 | 89 | 3.0 | 4.0 | 0.00 | 0.17 | 0.00 | 87 | 1016.6 |
| 20260507060218 | 46 | 88 | 3.0 | 4.0 | 0.00 | 0.18 | 0.00 | 87 | 1016.6 |
| 20260507060203 | 46 | 88 | 3.0 | 6.0 | 0.00 | 0.18 | 0.00 | 87 | 1016.6 |
| 20260507055803 | 46 | 85 | 3.0 | 5.0 | 0.00 | 0.18 | 0.00 | 87 | 1016.5 |
| 20260507055603 | 46 | 85 | 3.0 | 4.0 | 0.00 | 0.18 | 0.00 | 87 | 1016.8 |
| 20260507055416 | 46 | 86 | 3.0 | 4.0 | 0.00 | 0.19 | 0.00 | 87 | 1016.6 |
| 20260507055403 | 46 | 87 | 3.0 | 4.0 | 0.00 | 0.19 | 0.00 | 87 | 1016.6 |
| 20260507055003 | 46 | 82 | 3.0 | 4.0 | 0.00 | 0.19 | 0.00 | 87 | 1016.5 |
| 20260507054803 | 46 | 81 | 3.0 | 4.0 | 0.00 | 0.19 | 0.00 | 87 | 1016.8 |
| 20260507054603 | 46 | 82 | 3.0 | 4.0 | 0.00 | 0.19 | 0.00 | 87 | 1016.5 |
| 20260507054403 | 46 | 76 | 3.0 | 4.0 | 0.00 | 0.19 | 0.00 | 87 | 1016.6 |
| 20260507054203 | 46 | 72 | 3.0 | 5.0 | 0.00 | 0.19 | 0.00 | 87 | 1016.5 |
| 20260507054003 | 46 | 73 | 3.0 | 4.0 | 0.00 | 0.19 | 0.00 | 87 | 1016.3 |
| 20260507053818 | 46 | 72 | 3.0 | 4.0 | 0.00 | 0.19 | 0.00 | 87 | 1016.5 |
| 20260507053803 | 46 | 71 | 3.0 | 4.0 | 0.00 | 0.19 | 0.00 | 87 | 1016.5 |
| 20260507053403 | 46 | 75 | 3.0 | 6.0 | 0.00 | 0.20 | 0.00 | 86 | 1016.3 |
| 20260507053203 | 46 | 78 | 3.0 | 4.0 | 0.00 | 0.20 | 0.00 | 86 | 1016.4 |
| 20260507052803 | 46 | 79 | 3.0 | 5.0 | 0.00 | 0.20 | 0.00 | 87 | 1016.3 |
| 20260507052603 | 46 | 78 | 3.0 | 4.0 | 0.00 | 0.20 | 0.00 | 87 | 1016.3 |
| 20260507052403 | 46 | 79 | 3.0 | 4.0 | 0.00 | 0.20 | 0.00 | 86 | 1016.3 |
| 20260507052203 | 46 | 77 | 3.0 | 6.0 | 0.00 | 0.20 | 0.00 | 86 | 1016.2 |
| 20260507052003 | 46 | 77 | 3.0 | 5.0 | 0.00 | 0.21 | 0.00 | 87 | 1016.2 |
| 20260507051803 | 46 | 77 | 3.0 | 6.0 | 0.00 | 0.21 | 0.00 | 87 | 1016.2 |
| 20260507051603 | 46 | 82 | 3.0 | 9.0 | 0.00 | 0.21 | 0.00 | 86 | 1016.2 |
| 20260507051404 | 46 | 81 | 3.0 | 4.0 | 0.00 | 0.21 | 0.00 | 87 | 1016.1 |
| 20260507051203 | 46 | 83 | 3.0 | 5.0 | 0.00 | 0.21 | 0.00 | 87 | 1016.2 |
| 20260507051003 | 46 | 82 | 3.0 | 3.0 | 0.00 | 0.21 | 0.00 | 87 | 1016.0 |
| 20260507050803 | 46 | 81 | 3.0 | 5.0 | 0.00 | 0.22 | 0.00 | 87 | 1016.3 |
| 20260507050603 | 46 | 77 | 3.0 | 3.0 | 0.00 | 0.22 | 0.00 | 87 | 1016.2 |
| 20260507050403 | 45 | 77 | 3.0 | 3.0 | 0.00 | 0.22 | 0.00 | 86 | 1015.9 |
| 20260507050203 | 45 | 78 | 3.0 | 4.0 | 0.00 | 0.22 | 0.00 | 87 | 1016.0 |
| 20260507050003 | 46 | 81 | 3.0 | 4.0 | 0.00 | 0.22 | 0.00 | 86 | 1015.9 |
| 20260507045803 | 46 | 84 | 3.0 | 4.0 | 0.00 | 0.22 | 0.00 | 87 | 1016.1 |
| 20260507045603 | 46 | 87 | 3.0 | 4.0 | 0.00 | 0.22 | 0.00 | 87 | 1016.0 |
| 20260507045403 | 46 | 86 | 3.0 | 4.0 | 0.00 | 0.23 | 0.00 | 87 | 1016.2 |
| 20260507045217 | 45 | 89 | 3.0 | 4.0 | 0.00 | 0.23 | 0.00 | 87 | 1016.0 |
| 20260507045203 | 45 | 90 | 3.0 | 4.0 | 0.00 | 0.23 | 0.00 | 87 | 1016.0 |
| 20260507044803 | 45 | 91 | 3.0 | 4.0 | 0.00 | 0.23 | 0.00 | 87 | 1015.8 |
| 20260507044603 | 45 | 92 | 3.0 | 4.0 | 0.00 | 0.24 | 0.00 | 87 | 1015.9 |
| 20260507044403 | 45 | 95 | 3.0 | 5.0 | 0.00 | 0.24 | 0.00 | 87 | 1015.9 |
| 20260507044003 | 45 | 94 | 3.0 | 3.0 | 0.00 | 0.24 | 0.00 | 87 | 1016.1 |
| 20260507043803 | 45 | 90 | 3.0 | 4.0 | 0.00 | 0.24 | 0.00 | 87 | 1015.8 |
| 20260507043603 | 45 | 84 | 3.0 | 4.0 | 0.00 | 0.24 | 0.00 | 87 | 1015.8 |
| 20260507043403 | 45 | 83 | 3.0 | 3.0 | 0.00 | 0.24 | 0.00 | 88 | 1015.8 |
| 20260507043203 | 45 | 82 | 3.0 | 4.0 | 0.00 | 0.24 | 0.00 | 88 | 1015.9 |
| 20260507043003 | 45 | 82 | 3.0 | 4.0 | 0.00 | 0.24 | 0.00 | 88 | 1015.9 |
| 20260507042803 | 45 | 86 | 3.0 | 4.0 | 0.00 | 0.25 | 0.00 | 88 | 1015.8 |
| 20260507042603 | 45 | 91 | 3.0 | 4.0 | 0.00 | 0.25 | 0.00 | 87 | 1015.8 |
| 20260507042403 | 45 | 91 | 3.0 | 4.0 | 0.00 | 0.25 | 0.00 | 88 | 1016.0 |
| 20260507042217 | 45 | 90 | 3.0 | 4.0 | 0.00 | 0.25 | 0.00 | 87 | 1015.8 |
| 20260507042203 | 45 | 90 | 3.0 | 4.0 | 0.00 | 0.25 | 0.00 | 88 | 1015.8 |
| 20260507042016 | 45 | 91 | 3.0 | 3.0 | 0.00 | 0.25 | 0.00 | 87 | 1015.8 |
| 20260507041603 | 45 | 81 | 3.0 | 4.0 | 0.00 | 0.25 | 0.00 | 87 | 1015.5 |
| 20260507041403 | 45 | 76 | 3.0 | 4.0 | 0.00 | 0.25 | 0.00 | 87 | 1015.8 |
| 20260507041203 | 45 | 77 | 3.0 | 4.0 | 0.00 | 0.26 | 0.00 | 88 | 1015.6 |
| 20260507041003 | 45 | 76 | 3.0 | 4.0 | 0.00 | 0.26 | 0.00 | 87 | 1015.5 |
| 20260507040803 | 45 | 81 | 3.0 | 6.0 | 0.00 | 0.26 | 0.00 | 87 | 1015.6 |
| 20260507040603 | 45 | 83 | 3.0 | 4.0 | 0.00 | 0.26 | 0.00 | 87 | 1015.6 |
| 20260507040403 | 45 | 86 | 3.0 | 5.0 | 0.00 | 0.26 | 0.00 | 87 | 1015.6 |
| 20260507040203 | 45 | 85 | 3.0 | 4.0 | 0.00 | 0.26 | 0.00 | 87 | 1015.5 |
| 20260507040018 | 45 | 87 | 3.0 | 3.0 | 0.00 | 0.26 | 0.00 | 87 | 1015.5 |
| 20260507040003 | 45 | 88 | 3.0 | 4.0 | 0.00 | 0.26 | 0.00 | 87 | 1015.5 |
| 20260507035603 | 45 | 86 | 3.0 | 5.0 | 0.00 | 0.26 | 0.00 | 87 | 1015.3 |
| 20260507035417 | 45 | 86 | 3.0 | 4.0 | 0.00 | 0.26 | 0.00 | 87 | 1015.8 |
| 20260507035018 | 45 | 86 | 3.0 | 5.0 | 0.00 | 0.26 | 0.00 | 87 | 1015.6 |
| 20260507035003 | 45 | 85 | 3.0 | 5.0 | 0.00 | 0.26 | 0.00 | 87 | 1015.6 |
| 20260507034603 | 45 | 85 | 3.0 | 3.0 | 0.00 | 0.27 | 0.00 | 87 | 1015.6 |
| 20260507034404 | 45 | 86 | 3.0 | 4.0 | 0.00 | 0.27 | 0.00 | 87 | 1015.5 |
| 20260507034203 | 45 | 86 | 3.0 | 3.0 | 0.00 | 0.27 | 0.00 | 87 | 1015.5 |
| 20260507034018 | 45 | 87 | 3.0 | 4.0 | 0.00 | 0.28 | 0.00 | 87 | 1015.5 |
| 20260507034003 | 45 | 88 | 3.0 | 4.0 | 0.00 | 0.28 | 0.00 | 87 | 1015.5 |
| 20260507033603 | 45 | 89 | 3.0 | 5.0 | 0.00 | 0.28 | 0.00 | 87 | 1015.5 |
| 20260507033403 | 45 | 85 | 3.0 | 4.0 | 0.00 | 0.28 | 0.00 | 87 | 1015.6 |
| 20260507033203 | 45 | 81 | 3.0 | 3.0 | 0.00 | 0.28 | 0.00 | 87 | 1015.7 |
| 20260507033003 | 45 | 80 | 3.0 | 5.0 | 0.00 | 0.28 | 0.00 | 87 | 1015.5 |
| 20260507032803 | 45 | 79 | 3.0 | 4.0 | 0.00 | 0.29 | 0.00 | 87 | 1015.6 |
| 20260507032603 | 45 | 76 | 3.0 | 4.0 | 0.00 | 0.29 | 0.00 | 87 | 1015.4 |
| 20260507032403 | 45 | 76 | 3.0 | 4.0 | 0.00 | 0.29 | 0.00 | 87 | 1015.4 |
| 20260507032203 | 45 | 79 | 3.0 | 4.0 | 0.00 | 0.29 | 0.00 | 87 | 1015.4 |
| 20260507031803 | 45 | 83 | 3.0 | 6.0 | 0.00 | 0.30 | 0.00 | 87 | 1015.4 |
| 20260507031603 | 45 | 87 | 3.0 | 4.0 | 0.00 | 0.30 | 0.00 | 86 | 1015.3 |
| 20260507031403 | 45 | 88 | 3.0 | 4.0 | 0.00 | 0.30 | 0.00 | 86 | 1015.4 |
| 20260507031203 | 45 | 88 | 3.0 | 4.0 | 0.00 | 0.30 | 0.00 | 86 | 1015.6 |
| 20260507031003 | 45 | 86 | 3.0 | 6.0 | 0.00 | 0.31 | 0.00 | 86 | 1015.3 |
| 20260507030803 | 45 | 83 | 3.0 | 4.0 | 0.00 | 0.31 | 0.00 | 86 | 1015.3 |
| 20260507030618 | 45 | 84 | 3.0 | 4.0 | 0.00 | 0.31 | 0.00 | 86 | 1015.4 |
| 20260507030603 | 45 | 84 | 3.0 | 4.0 | 0.00 | 0.31 | 0.00 | 87 | 1015.4 |
| 20260507030203 | 45 | 82 | 3.0 | 4.0 | 0.00 | 0.32 | 0.00 | 87 | 1015.5 |
| 20260507030003 | 45 | 78 | 3.0 | 3.0 | 0.00 | 0.32 | 0.00 | 87 | 1015.3 |
| 20260507025803 | 45 | 80 | 3.0 | 5.0 | 0.00 | 0.33 | 0.00 | 87 | 1015.3 |
| 20260507025603 | 45 | 79 | 3.0 | 6.0 | 0.00 | 0.33 | 0.00 | 87 | 1015.3 |
| 20260507025203 | 45 | 79 | 3.0 | 4.0 | 0.00 | 0.34 | 0.00 | 86 | 1015.3 |
| 20260507025003 | 45 | 83 | 3.0 | 4.0 | 0.00 | 0.34 | 0.00 | 86 | 1015.4 |
| 20260507024803 | 45 | 80 | 3.0 | 3.0 | 0.00 | 0.35 | 0.00 | 86 | 1015.2 |
| 20260507024603 | 45 | 78 | 3.0 | 4.0 | 0.00 | 0.35 | 0.00 | 86 | 1015.1 |
| 20260507024403 | 45 | 78 | 3.0 | 4.0 | 0.00 | 0.36 | 0.00 | 86 | 1015.3 |
| 20260507024203 | 45 | 81 | 3.0 | 4.0 | 0.00 | 0.37 | 0.00 | 86 | 1015.2 |
| 20260507024003 | 45 | 74 | 3.0 | 4.0 | 0.00 | 0.37 | 0.00 | 86 | 1015.3 |
| 20260507023803 | 45 | 74 | 3.0 | 4.0 | 0.00 | 0.38 | 0.00 | 86 | 1015.2 |
| 20260507023603 | 45 | 77 | 3.0 | 5.0 | 0.00 | 0.39 | 0.00 | 86 | 1015.5 |
| 20260507023417 | 45 | 79 | 3.0 | 3.0 | 0.00 | 0.39 | 0.00 | 86 | 1015.0 |
| 20260507023403 | 45 | 80 | 3.0 | 3.0 | 0.00 | 0.39 | 0.00 | 85 | 1015.0 |
| 20260507023003 | 45 | 87 | 3.0 | 5.0 | 0.00 | 0.41 | 0.00 | 85 | 1015.1 |
| 20260507022803 | 45 | 88 | 3.0 | 4.0 | 0.00 | 0.41 | 0.00 | 86 | 1015.1 |
| 20260507022603 | 45 | 89 | 3.0 | 4.0 | 0.00 | 0.42 | 0.00 | 86 | 1015.2 |
| 20260507022403 | 45 | 89 | 3.0 | 6.0 | 0.00 | 0.43 | 0.00 | 86 | 1014.9 |
| 20260507022203 | 45 | 86 | 3.0 | 4.0 | 0.00 | 0.43 | 0.00 | 86 | 1014.9 |
| 20260507022003 | 45 | 89 | 3.0 | 5.0 | 0.00 | 0.43 | 0.00 | 86 | 1015.0 |
| 20260507021804 | 45 | 92 | 3.0 | 6.0 | 0.00 | 0.44 | 0.00 | 86 | 1015.0 |
| 20260507021603 | 45 | 87 | 3.0 | 4.0 | 0.00 | 0.44 | 0.00 | 85 | 1014.9 |
| 20260507021404 | 45 | 87 | 3.0 | 3.0 | 0.00 | 0.45 | 0.00 | 86 | 1014.8 |
| 20260507021203 | 45 | 87 | 3.0 | 4.0 | 0.00 | 0.46 | 0.00 | 86 | 1015.0 |
| 20260507021003 | 45 | 82 | 3.0 | 4.0 | 0.00 | 0.47 | 0.00 | 86 | 1014.8 |
| 20260507020803 | 45 | 76 | 3.0 | 5.0 | 0.00 | 0.47 | 0.00 | 86 | 1015.2 |
| 20260507020603 | 45 | 75 | 3.0 | 4.0 | 0.00 | 0.48 | 0.00 | 86 | 1015.0 |
| 20260507020403 | 45 | 75 | 3.0 | 5.0 | 0.00 | 0.48 | 0.00 | 87 | 1014.9 |
| 20260507020203 | 45 | 74 | 3.0 | 4.0 | 0.00 | 0.49 | 0.00 | 86 | 1015.1 |
| 20260507020003 | 45 | 79 | 3.0 | 3.0 | 0.00 | 0.50 | 0.00 | 86 | 1014.9 |
| 20260507015803 | 45 | 79 | 3.0 | 6.0 | 0.00 | 0.50 | 0.00 | 86 | 1014.9 |
| 20260507015603 | 45 | 83 | 3.0 | 5.0 | 0.00 | 0.51 | 0.00 | 86 | 1014.9 |
| 20260507015403 | 45 | 82 | 3.0 | 3.0 | 0.00 | 0.52 | 0.00 | 87 | 1014.8 |
| 20260507015203 | 45 | 83 | 3.0 | 6.0 | 0.00 | 0.52 | 0.00 | 87 | 1014.8 |
| 20260507015003 | 45 | 83 | 3.0 | 4.0 | 0.00 | 0.53 | 0.00 | 87 | 1014.8 |
| 20260507014803 | 45 | 84 | 3.0 | 3.0 | 0.00 | 0.54 | 0.00 | 87 | 1014.8 |
| 20260507014603 | 45 | 82 | 3.0 | 3.0 | 0.00 | 0.54 | 0.00 | 86 | 1014.9 |
| 20260507014403 | 45 | 81 | 3.0 | 4.0 | 0.00 | 0.54 | 0.00 | 86 | 1014.8 |
| 20260507014203 | 45 | 81 | 3.0 | 7.0 | 0.00 | 0.55 | 0.00 | 86 | 1014.7 |
| 20260507014003 | 45 | 78 | 3.0 | 5.0 | 0.00 | 0.56 | 0.00 | 86 | 1014.8 |
| 20260507013803 | 45 | 81 | 3.0 | 7.0 | 0.00 | 0.56 | 0.00 | 86 | 1014.7 |
| 20260507013403 | 45 | 88 | 3.0 | 5.0 | 0.00 | 0.57 | 0.00 | 86 | 1014.7 |
| 20260507013203 | 45 | 86 | 3.0 | 4.0 | 0.00 | 0.57 | 0.00 | 86 | 1014.6 |
| 20260507013003 | 45 | 83 | 3.0 | 4.0 | 0.00 | 0.58 | 0.00 | 86 | 1014.5 |
| 20260507012803 | 45 | 82 | 3.0 | 4.0 | 0.00 | 0.58 | 0.00 | 86 | 1014.7 |
| 20260507012603 | 45 | 87 | 3.0 | 4.0 | 0.00 | 0.59 | 0.00 | 86 | 1014.3 |
| 20260507012403 | 45 | 81 | 3.0 | 5.0 | 0.00 | 0.59 | 0.00 | 86 | 1014.5 |
| 20260507012203 | 45 | 84 | 3.0 | 4.0 | 0.00 | 0.59 | 0.00 | 86 | 1014.8 |
| 20260507012003 | 45 | 88 | 3.0 | 4.0 | 0.00 | 0.60 | 0.00 | 86 | 1014.6 |
| 20260507011603 | 45 | 86 | 3.0 | 5.0 | 0.00 | 0.61 | 0.00 | 86 | 1014.7 |
| 20260507011403 | 45 | 92 | 3.0 | 3.0 | 0.00 | 0.61 | 0.00 | 86 | 1014.7 |
| 20260507011203 | 45 | 94 | 3.0 | 4.0 | 0.00 | 0.61 | 0.00 | 86 | 1014.9 |
| 20260507011017 | 45 | 96 | 3.0 | 4.0 | 0.00 | 0.62 | 0.00 | 86 | 1014.7 |
| 20260507010603 | 45 | 95 | 3.0 | 5.0 | 0.00 | 0.63 | 0.00 | 85 | 1014.9 |
| 20260507010403 | 45 | 94 | 3.0 | 5.0 | 0.00 | 0.63 | 0.00 | 85 | 1015.0 |
| 20260507010203 | 45 | 92 | 3.0 | 6.0 | 0.00 | 0.63 | 0.00 | 85 | 1014.9 |
| 20260507010003 | 45 | 87 | 3.0 | 5.0 | 0.00 | 0.63 | 0.00 | 85 | 1015.0 |
| 20260507005803 | 46 | 87 | 3.0 | 6.0 | 0.00 | 0.64 | 0.00 | 85 | 1015.0 |
| 20260507005603 | 46 | 84 | 3.0 | 4.0 | 0.00 | 0.64 | 0.00 | 85 | 1015.0 |
| 20260507005416 | 46 | 92 | 4.0 | 6.0 | 0.00 | 0.64 | 0.00 | 85 | 1014.9 |
| 20260507005403 | 46 | 93 | 4.0 | 6.0 | 0.00 | 0.64 | 0.00 | 85 | 1014.9 |
| 20260507005003 | 46 | 91 | 3.0 | 4.0 | 0.00 | 0.65 | 0.00 | 85 | 1014.9 |
| 20260507004803 | 46 | 93 | 3.0 | 6.0 | 0.00 | 0.65 | 0.00 | 86 | 1014.9 |
| 20260507004603 | 46 | 95 | 3.0 | 7.0 | 0.00 | 0.65 | 0.00 | 86 | 1014.7 |
| 20260507004416 | 46 | 87 | 3.0 | 8.0 | 0.00 | 0.65 | 0.00 | 86 | 1014.8 |
| 20260507004403 | 46 | 85 | 3.0 | 4.0 | 0.00 | 0.65 | 0.00 | 87 | 1014.8 |
| 20260507004003 | 46 | 85 | 3.0 | 4.0 | 0.00 | 0.65 | 0.00 | 86 | 1014.7 |
| 20260507003603 | 47 | 78 | 3.0 | 6.0 | 0.00 | 0.66 | 0.00 | 86 | 1014.7 |
| 20260507003403 | 47 | 81 | 3.0 | 4.0 | 0.00 | 0.66 | 0.00 | 87 | 1014.5 |
| 20260507003203 | 47 | 84 | 3.0 | 4.0 | 0.00 | 0.67 | 0.00 | 87 | 1014.7 |
| 20260507003017 | 47 | 83 | 3.0 | 3.0 | 0.00 | 0.67 | 0.00 | 87 | 1014.6 |
| 20260507003003 | 47 | 82 | 3.0 | 3.0 | 0.00 | 0.67 | 0.00 | 87 | 1014.6 |
| 20260507002603 | 47 | 85 | 3.0 | 4.0 | 0.00 | 0.67 | 0.00 | 86 | 1014.4 |
| 20260507002403 | 47 | 83 | 3.0 | 5.0 | 0.00 | 0.67 | 0.00 | 87 | 1014.3 |
| 20260507002003 | 47 | 87 | 3.0 | 6.0 | 0.00 | 0.68 | 0.00 | 87 | 1014.3 |
| 20260507001803 | 47 | 87 | 3.0 | 5.0 | 0.00 | 0.68 | 0.00 | 87 | 1014.5 |
| 20260507001603 | 47 | 86 | 3.0 | 4.0 | 0.00 | 0.68 | 0.00 | 87 | 1014.4 |
| 20260507001403 | 47 | 86 | 3.0 | 4.0 | 0.00 | 0.68 | 0.00 | 87 | 1014.4 |
| 20260507001203 | 48 | 87 | 3.0 | 10.0 | 0.00 | 0.68 | 0.00 | 86 | 1014.2 |
| 20260507001003 | 48 | 86 | 3.0 | 5.0 | 0.00 | 0.69 | 0.00 | 87 | 1013.8 |
| 20260507000803 | 48 | 87 | 3.0 | 5.0 | 0.00 | 0.69 | 0.00 | 87 | 1014.1 |
| 20260507000603 | 48 | 87 | 3.0 | 4.0 | 0.00 | 0.69 | 0.00 | 87 | 1013.8 |
| 20260507000405 | 48 | 90 | 3.0 | 3.0 | 0.00 | 0.69 | 0.00 | 87 | 1014.0 |
| 20260507000205 | 48 | 94 | 3.0 | 4.0 | 0.00 | 0.69 | 0.00 | 87 | 1014.0 |
| 20260507000003 | 48 | 90 | 3.0 | 4.0 | 0.00 | 0.69 | 0.00 | 88 | 1014.1 |
| 20260506235803 | 48 | 94 | 3.0 | 4.0 | 0.00 | 0.69 | 0.00 | 87 | 1014.2 |
| 20260506235603 | 48 | 96 | 3.0 | 4.0 | 0.00 | 0.69 | 0.00 | 87 | 1014.0 |
| 20260506235403 | 48 | 97 | 3.0 | 5.0 | 0.00 | 0.69 | 0.00 | 87 | 1014.2 |
| 20260506235203 | 48 | 97 | 3.0 | 3.0 | 0.00 | 0.70 | 0.00 | 87 | 1014.1 |
| 20260506235003 | 48 | 98 | 3.0 | 6.0 | 0.00 | 0.70 | 0.00 | 87 | 1014.0 |
| 20260506234818 | 48 | 94 | 3.0 | 5.0 | 0.00 | 0.70 | 0.00 | 87 | 1013.9 |
| 20260506234803 | 48 | 95 | 3.0 | 5.0 | 0.00 | 0.70 | 0.00 | 87 | 1013.9 |
| 20260506234418 | 49 | 94 | 3.0 | 4.0 | 0.00 | 0.70 | 0.00 | 87 | 1014.0 |
| 20260506234403 | 49 | 93 | 3.0 | 4.0 | 0.00 | 0.70 | 0.00 | 87 | 1014.0 |
| 20260506234003 | 49 | 89 | 3.0 | 4.0 | 0.00 | 0.70 | 0.00 | 87 | 1013.9 |
| 20260506233803 | 49 | 93 | 4.0 | 4.0 | 0.00 | 0.70 | 0.00 | 87 | 1013.7 |
| 20260506233603 | 49 | 86 | 4.0 | 5.0 | 0.00 | 0.70 | 0.00 | 86 | 1013.8 |
| 20260506233418 | 49 | 85 | 4.0 | 6.0 | 0.00 | 0.70 | 0.00 | 86 | 1013.9 |
| 20260506233403 | 49 | 87 | 4.0 | 5.0 | 0.00 | 0.70 | 0.00 | 86 | 1013.9 |
| 20260506233217 | 49 | 87 | 4.0 | 7.0 | 0.00 | 0.70 | 0.00 | 86 | 1013.9 |
| 20260506232803 | 49 | 83 | 3.0 | 4.0 | 0.00 | 0.70 | 0.00 | 86 | 1013.8 |
| 20260506232603 | 49 | 90 | 3.0 | 5.0 | 0.00 | 0.70 | 0.00 | 86 | 1013.7 |
| 20260506232403 | 50 | 84 | 3.0 | 5.0 | 0.00 | 0.70 | 0.00 | 86 | 1013.8 |
| 20260506232217 | 50 | 81 | 3.0 | 3.0 | 0.00 | 0.70 | 0.00 | 86 | 1013.8 |
| 20260506232203 | 50 | 82 | 3.0 | 4.0 | 0.00 | 0.70 | 0.00 | 86 | 1013.8 |
| 20260506231803 | 50 | 86 | 3.0 | 4.0 | 0.00 | 0.71 | 0.00 | 86 | 1013.8 |
| 20260506231403 | 50 | 83 | 3.0 | 4.0 | 0.00 | 0.71 | 0.00 | 86 | 1013.7 |
| 20260506231203 | 50 | 82 | 3.0 | 4.0 | 0.00 | 0.71 | 0.00 | 86 | 1013.8 |
| 20260506231003 | 50 | 79 | 3.0 | 3.0 | 0.00 | 0.71 | 0.00 | 86 | 1013.6 |
| 20260506230803 | 50 | 78 | 3.0 | 5.0 | 0.00 | 0.71 | 0.00 | 86 | 1013.7 |
| 20260506230617 | 50 | 78 | 3.0 | 4.0 | 0.00 | 0.71 | 0.00 | 86 | 1013.8 |
| 20260506230603 | 50 | 79 | 3.0 | 4.0 | 0.00 | 0.71 | 0.00 | 86 | 1013.8 |
| 20260506230203 | 50 | 81 | 3.0 | 4.0 | 0.00 | 0.71 | 0.00 | 86 | 1013.9 |
| 20260506230003 | 50 | 79 | 3.0 | 4.0 | 0.00 | 0.71 | 0.00 | 86 | 1013.8 |
| 20260506225803 | 50 | 76 | 3.0 | 5.0 | 0.00 | 0.72 | 0.00 | 87 | 1013.8 |
| 20260506225603 | 50 | 84 | 3.0 | 4.0 | 0.00 | 0.72 | 0.00 | 86 | 1013.6 |
| 20260506225403 | 50 | 84 | 3.0 | 4.0 | 0.00 | 0.72 | 0.00 | 86 | 1013.6 |
| 20260506225203 | 50 | 84 | 3.0 | 4.0 | 0.00 | 0.72 | 0.00 | 87 | 1013.9 |
| 20260506225018 | 50 | 86 | 3.0 | 5.0 | 0.00 | 0.72 | 0.00 | 87 | 1013.7 |
| 20260506225003 | 50 | 88 | 3.0 | 5.0 | 0.00 | 0.72 | 0.00 | 87 | 1013.7 |
| 20260506224817 | 50 | 92 | 3.0 | 5.0 | 0.00 | 0.72 | 0.00 | 86 | 1013.6 |
| 20260506224403 | 50 | 82 | 3.0 | 4.0 | 0.00 | 0.72 | 0.00 | 86 | 1013.7 |
| 20260506224203 | 50 | 86 | 3.0 | 4.0 | 0.00 | 0.72 | 0.00 | 87 | 1013.7 |
| 20260506224003 | 50 | 88 | 3.0 | 4.0 | 0.00 | 0.72 | 0.00 | 87 | 1013.7 |
| 20260506223803 | 50 | 89 | 3.0 | 3.0 | 0.00 | 0.72 | 0.00 | 87 | 1013.8 |
| 20260506223616 | 50 | 88 | 3.0 | 4.0 | 0.00 | 0.72 | 0.00 | 87 | 1013.5 |
| 20260506223603 | 50 | 89 | 3.0 | 4.0 | 0.00 | 0.72 | 0.00 | 87 | 1013.5 |
| 20260506223203 | 50 | 86 | 3.0 | 4.0 | 0.00 | 0.72 | 0.00 | 87 | 1013.5 |
| 20260506223003 | 50 | 88 | 3.0 | 5.0 | 0.00 | 0.72 | 0.00 | 88 | 1013.7 |
| 20260506222803 | 50 | 87 | 3.0 | 4.0 | 0.00 | 0.72 | 0.00 | 88 | 1013.4 |
| 20260506222603 | 50 | 90 | 3.0 | 4.0 | 0.00 | 0.72 | 0.00 | 88 | 1013.5 |
| 20260506222403 | 50 | 86 | 3.0 | 4.0 | 0.00 | 0.72 | 0.00 | 88 | 1013.6 |
| 20260506222203 | 50 | 88 | 3.0 | 6.0 | 0.00 | 0.72 | 0.00 | 88 | 1013.6 |
| 20260506222003 | 50 | 83 | 3.0 | 4.0 | 0.00 | 0.72 | 0.00 | 87 | 1013.6 |
| 20260506221803 | 50 | 83 | 3.0 | 4.0 | 0.00 | 0.72 | 0.00 | 87 | 1013.3 |
| 20260506221603 | 50 | 83 | 3.0 | 4.0 | 0.00 | 0.72 | 0.00 | 88 | 1013.4 |
| 20260506221403 | 50 | 85 | 3.0 | 4.0 | 0.00 | 0.72 | 0.00 | 87 | 1013.4 |
| 20260506221217 | 50 | 89 | 3.0 | 4.0 | 0.00 | 0.72 | 0.00 | 88 | 1013.5 |
| 20260506221203 | 50 | 88 | 3.0 | 4.0 | 0.00 | 0.72 | 0.00 | 88 | 1013.5 |
| 20260506220803 | 50 | 87 | 3.0 | 4.0 | 0.00 | 0.72 | 0.00 | 88 | 1013.4 |
| 20260506220603 | 50 | 83 | 3.0 | 4.0 | 0.00 | 0.72 | 0.00 | 88 | 1013.4 |
| 20260506220417 | 50 | 82 | 3.0 | 4.0 | 0.00 | 0.72 | 0.00 | 88 | 1013.7 |
| 20260506220403 | 50 | 83 | 3.0 | 4.0 | 0.00 | 0.72 | 0.00 | 88 | 1013.7 |
| 20260506220219 | 50 | 79 | 3.0 | 4.0 | 0.00 | 0.72 | 0.00 | 89 | 1013.5 |
| 20260506220018 | 50 | 79 | 3.0 | 3.0 | 0.00 | 0.72 | 0.00 | 89 | 1013.6 |
| 20260506215603 | 51 | 84 | 3.0 | 3.0 | 0.00 | 0.72 | 0.72 | 89 | 1013.5 |
| 20260506215403 | 51 | 83 | 3.0 | 4.0 | 0.00 | 0.72 | 0.72 | 89 | 1013.5 |
| 20260506215003 | 51 | 80 | 3.0 | 4.0 | 0.00 | 0.72 | 0.72 | 89 | 1013.8 |
| 20260506214803 | 51 | 81 | 3.0 | 3.0 | 0.00 | 0.72 | 0.72 | 89 | 1013.8 |
| 20260506214403 | 51 | 80 | 3.0 | 4.0 | 0.00 | 0.72 | 0.72 | 89 | 1013.7 |
| 20260506214003 | 51 | 85 | 3.0 | 4.0 | 0.00 | 0.72 | 0.72 | 89 | 1013.8 |
| 20260506213803 | 51 | 82 | 3.0 | 4.0 | 0.00 | 0.72 | 0.72 | 89 | 1013.6 |
| 20260506213603 | 51 | 88 | 3.0 | 3.0 | 0.00 | 0.72 | 0.72 | 89 | 1013.7 |
| 20260506213403 | 51 | 90 | 3.0 | 4.0 | 0.00 | 0.72 | 0.72 | 89 | 1013.6 |
| 20260506213203 | 51 | 89 | 3.0 | 3.0 | 0.00 | 0.72 | 0.72 | 89 | 1013.6 |
| 20260506213003 | 51 | 89 | 3.0 | 4.0 | 0.00 | 0.72 | 0.72 | 89 | 1013.5 |
| 20260506212603 | 51 | 88 | 3.0 | 4.0 | 0.00 | 0.72 | 0.72 | 90 | 1013.8 |
| 20260506212403 | 51 | 85 | 3.0 | 4.0 | 0.00 | 0.72 | 0.72 | 90 | 1013.5 |
| 20260506212203 | 51 | 83 | 3.0 | 4.0 | 0.00 | 0.72 | 0.72 | 90 | 1013.6 |
| 20260506212003 | 51 | 83 | 3.0 | 4.0 | 0.00 | 0.72 | 0.72 | 90 | 1013.3 |
| 20260506211803 | 51 | 84 | 3.0 | 5.0 | 0.00 | 0.72 | 0.72 | 90 | 1013.5 |
| 20260506211618 | 51 | 84 | 3.0 | 3.0 | 0.00 | 0.72 | 0.72 | 90 | 1013.4 |
| 20260506211603 | 51 | 83 | 3.0 | 4.0 | 0.00 | 0.72 | 0.72 | 90 | 1013.4 |
| 20260506211203 | 51 | 85 | 3.0 | 4.0 | 0.00 | 0.72 | 0.72 | 90 | 1013.5 |
| 20260506211003 | 51 | 82 | 3.0 | 5.0 | 0.00 | 0.72 | 0.72 | 90 | 1013.6 |
| 20260506210803 | 51 | 79 | 3.0 | 3.0 | 0.00 | 0.72 | 0.72 | 90 | 1013.6 |
| 20260506210618 | 51 | 77 | 3.0 | 2.0 | 0.00 | 0.72 | 0.72 | 90 | 1013.4 |
| 20260506210603 | 51 | 77 | 3.0 | 3.0 | 0.00 | 0.72 | 0.72 | 90 | 1013.4 |
| 20260506210203 | 51 | 77 | 3.0 | 5.0 | 0.00 | 0.72 | 0.72 | 90 | 1013.3 |
| 20260506205803 | 51 | 83 | 3.0 | 4.0 | 0.00 | 0.72 | 0.72 | 89 | 1013.4 |
| 20260506205403 | 51 | 82 | 3.0 | 4.0 | 0.00 | 0.72 | 0.72 | 90 | 1013.5 |
| 20260506205203 | 51 | 81 | 3.0 | 3.0 | 0.00 | 0.72 | 0.72 | 90 | 1013.5 |
| 20260506205003 | 51 | 77 | 3.0 | 4.0 | 0.00 | 0.72 | 0.72 | 90 | 1013.4 |
| 20260506204803 | 51 | 77 | 3.0 | 4.0 | 0.00 | 0.72 | 0.72 | 90 | 1013.4 |
| 20260506204603 | 51 | 77 | 3.0 | 3.0 | 0.00 | 0.72 | 0.72 | 89 | 1013.2 |
| 20260506204403 | 51 | 79 | 3.0 | 4.0 | 0.00 | 0.72 | 0.72 | 89 | 1013.2 |
| 20260506204203 | 51 | 82 | 3.0 | 4.0 | 0.00 | 0.72 | 0.72 | 89 | 1013.1 |
| 20260506204003 | 51 | 83 | 3.0 | 3.0 | 0.00 | 0.72 | 0.72 | 89 | 1013.2 |
| 20260506203803 | 51 | 86 | 3.0 | 4.0 | 0.00 | 0.72 | 0.72 | 88 | 1013.2 |
| 20260506203403 | 51 | 85 | 3.0 | 4.0 | 0.00 | 0.72 | 0.72 | 88 | 1013.1 |
| 20260506203203 | 51 | 83 | 3.0 | 4.0 | 0.00 | 0.72 | 0.72 | 87 | 1013.3 |
| 20260506203003 | 51 | 83 | 3.0 | 5.0 | 0.00 | 0.72 | 0.72 | 87 | 1013.0 |
| 20260506202803 | 51 | 81 | 3.0 | 3.0 | 0.00 | 0.72 | 0.72 | 88 | 1013.1 |
| 20260506202603 | 51 | 80 | 3.0 | 4.0 | 0.00 | 0.72 | 0.72 | 88 | 1013.1 |
| 20260506202403 | 51 | 83 | 3.0 | 3.0 | 0.00 | 0.72 | 0.72 | 88 | 1013.1 |
| 20260506202203 | 51 | 85 | 3.0 | 4.0 | 0.00 | 0.72 | 0.72 | 88 | 1013.0 |
| 20260506202003 | 51 | 82 | 3.0 | 4.0 | 0.00 | 0.72 | 0.72 | 87 | 1013.2 |
| 20260506201803 | 51 | 82 | 3.0 | 4.0 | 0.00 | 0.72 | 0.72 | 88 | 1013.1 |
| 20260506201603 | 51 | 88 | 3.0 | 5.0 | 0.00 | 0.72 | 0.72 | 88 | 1013.3 |
| 20260506201403 | 51 | 85 | 3.0 | 4.0 | 0.00 | 0.72 | 0.72 | 88 | 1013.1 |
| 20260506201203 | 51 | 86 | 3.0 | 4.0 | 0.00 | 0.72 | 0.72 | 88 | 1012.9 |
| 20260506201003 | 51 | 87 | 3.0 | 5.0 | 0.00 | 0.72 | 0.72 | 88 | 1013.0 |
| 20260506200816 | 51 | 86 | 3.0 | 6.0 | 0.00 | 0.72 | 0.72 | 87 | 1013.0 |
| 20260506200803 | 51 | 86 | 3.0 | 6.0 | 0.00 | 0.72 | 0.72 | 88 | 1013.0 |
| 20260506200403 | 51 | 79 | 3.0 | 3.0 | 0.00 | 0.72 | 0.72 | 87 | 1012.8 |
| 20260506200003 | 51 | 80 | 3.0 | 3.0 | 0.00 | 0.72 | 0.72 | 87 | 1012.8 |
| 20260506195803 | 51 | 80 | 3.0 | 4.0 | 0.00 | 0.72 | 0.72 | 87 | 1012.8 |
| 20260506195603 | 51 | 84 | 3.0 | 3.0 | 0.00 | 0.72 | 0.72 | 88 | 1013.0 |
| 20260506195403 | 51 | 87 | 3.0 | 4.0 | 0.00 | 0.72 | 0.72 | 87 | 1012.9 |
| 20260506195203 | 51 | 86 | 3.0 | 4.0 | 0.00 | 0.72 | 0.72 | 87 | 1012.9 |
| 20260506195017 | 51 | 90 | 3.0 | 3.0 | 0.00 | 0.72 | 0.72 | 87 | 1013.2 |
| 20260506195004 | 51 | 91 | 3.0 | 3.0 | 0.00 | 0.72 | 0.72 | 87 | 1013.2 |
| 20260506194603 | 51 | 88 | 3.0 | 4.0 | 0.00 | 0.72 | 0.72 | 86 | 1012.9 |
| 20260506194403 | 51 | 86 | 3.0 | 3.0 | 0.00 | 0.72 | 0.72 | 86 | 1013.0 |
| 20260506194203 | 51 | 86 | 3.0 | 3.0 | 0.00 | 0.72 | 0.72 | 86 | 1013.1 |
| 20260506194003 | 51 | 82 | 3.0 | 4.0 | 0.00 | 0.72 | 0.72 | 87 | 1013.1 |
| 20260506193803 | 51 | 85 | 3.0 | 5.0 | 0.00 | 0.72 | 0.72 | 87 | 1012.9 |
| 20260506193603 | 51 | 89 | 3.0 | 4.0 | 0.00 | 0.72 | 0.72 | 87 | 1012.8 |
| 20260506193403 | 51 | 87 | 3.0 | 3.0 | 0.00 | 0.72 | 0.72 | 88 | 1012.8 |
| 20260506193203 | 51 | 87 | 3.0 | 4.0 | 0.00 | 0.72 | 0.72 | 88 | 1013.0 |
| 20260506193017 | 51 | 89 | 3.0 | 5.0 | 0.00 | 0.72 | 0.72 | 88 | 1013.0 |
| 20260506193003 | 51 | 90 | 3.0 | 5.0 | 0.00 | 0.72 | 0.72 | 87 | 1013.0 |
| 20260506192603 | 51 | 82 | 3.0 | 4.0 | 0.00 | 0.72 | 0.72 | 88 | 1013.1 |
| 20260506192403 | 51 | 85 | 3.0 | 3.0 | 0.00 | 0.72 | 0.72 | 88 | 1013.0 |
| 20260506192203 | 51 | 86 | 3.0 | 4.0 | 0.00 | 0.72 | 0.72 | 88 | 1013.0 |
| 20260506192003 | 51 | 80 | 3.0 | 4.0 | 0.00 | 0.72 | 0.72 | 88 | 1013.0 |
| 20260506191803 | 51 | 78 | 3.0 | 3.0 | 0.00 | 0.72 | 0.72 | 88 | 1012.9 |
| 20260506191617 | 51 | 78 | 3.0 | 4.0 | 0.00 | 0.72 | 0.72 | 88 | 1012.8 |
| 20260506191603 | 51 | 79 | 3.0 | 4.0 | 0.00 | 0.72 | 0.72 | 88 | 1012.8 |
| 20260506191203 | 52 | 79 | 3.0 | 4.0 | 0.00 | 0.72 | 0.72 | 87 | 1012.8 |
| 20260506191003 | 52 | 84 | 3.0 | 4.0 | 0.00 | 0.72 | 0.72 | 87 | 1012.9 |
| 20260506190803 | 52 | 87 | 3.0 | 4.0 | 0.00 | 0.72 | 0.72 | 87 | 1012.7 |
| 20260506190603 | 52 | 87 | 3.0 | 4.0 | 0.00 | 0.72 | 0.72 | 87 | 1012.8 |
| 20260506190403 | 52 | 85 | 3.0 | 4.0 | 0.00 | 0.72 | 0.72 | 86 | 1012.6 |
| 20260506190003 | 52 | 80 | 3.0 | 4.0 | 0.00 | 0.72 | 0.72 | 87 | 1012.8 |
| 20260506185803 | 52 | 77 | 3.0 | 3.0 | 0.00 | 0.72 | 0.72 | 87 | 1012.8 |
| 20260506185617 | 52 | 78 | 3.0 | 4.0 | 0.00 | 0.72 | 0.72 | 87 | 1012.8 |
| 20260506185603 | 52 | 79 | 3.0 | 4.0 | 0.00 | 0.72 | 0.72 | 87 | 1012.8 |
| 20260506185203 | 52 | 78 | 3.0 | 5.0 | 0.00 | 0.72 | 0.72 | 87 | 1012.9 |
| 20260506185003 | 52 | 74 | 3.0 | 4.0 | 0.00 | 0.72 | 0.72 | 87 | 1012.8 |
| 20260506184803 | 52 | 73 | 3.0 | 5.0 | 0.00 | 0.72 | 0.72 | 86 | 1012.6 |
| 20260506184603 | 52 | 71 | 3.0 | 3.0 | 0.00 | 0.72 | 0.72 | 86 | 1012.7 |
| 20260506184403 | 53 | 73 | 3.0 | 4.0 | 0.00 | 0.72 | 0.72 | 86 | 1012.6 |
| 20260506184217 | 53 | 74 | 3.0 | 5.0 | 0.00 | 0.72 | 0.72 | 86 | 1012.5 |
| 20260506184203 | 53 | 75 | 3.0 | 5.0 | 0.00 | 0.72 | 0.72 | 87 | 1012.5 |
| 20260506183803 | 53 | 82 | 3.0 | 3.0 | 0.00 | 0.72 | 0.72 | 88 | 1012.5 |
| 20260506183403 | 53 | 85 | 3.0 | 4.0 | 0.00 | 0.72 | 0.72 | 88 | 1012.3 |
| 20260506183203 | 53 | 86 | 3.0 | 4.0 | 0.00 | 0.72 | 0.72 | 87 | 1012.2 |
| 20260506183003 | 53 | 86 | 3.0 | 5.0 | 0.00 | 0.72 | 0.72 | 87 | 1012.2 |
| 20260506182803 | 53 | 88 | 3.0 | 4.0 | 0.00 | 0.72 | 0.72 | 87 | 1012.3 |
| 20260506182603 | 53 | 85 | 3.0 | 3.0 | 0.00 | 0.72 | 0.72 | 87 | 1012.2 |
| 20260506182403 | 53 | 82 | 3.0 | 4.0 | 0.00 | 0.72 | 0.72 | 87 | 1012.2 |
| 20260506182203 | 53 | 83 | 3.0 | 3.0 | 0.00 | 0.72 | 0.72 | 86 | 1012.3 |
| 20260506182003 | 54 | 80 | 3.0 | 4.0 | 0.00 | 0.72 | 0.72 | 86 | 1012.2 |
| 20260506181803 | 54 | 83 | 3.0 | 3.0 | 0.00 | 0.72 | 0.72 | 87 | 1012.3 |
| 20260506181603 | 54 | 87 | 3.0 | 3.0 | 0.00 | 0.72 | 0.72 | 86 | 1012.3 |
| 20260506181403 | 54 | 92 | 3.0 | 6.0 | 0.00 | 0.72 | 0.72 | 85 | 1012.1 |
| 20260506181203 | 54 | 93 | 3.0 | 5.0 | 0.00 | 0.72 | 0.72 | 86 | 1012.0 |
| 20260506181003 | 54 | 96 | 3.0 | 4.0 | 0.00 | 0.72 | 0.72 | 86 | 1012.2 |
| 20260506180803 | 54 | 98 | 3.0 | 4.0 | 0.00 | 0.72 | 0.72 | 86 | 1012.1 |
| 20260506180603 | 54 | 98 | 3.0 | 4.0 | 0.00 | 0.72 | 0.72 | 86 | 1011.8 |
| 20260506180403 | 54 | 96 | 3.0 | 5.0 | 0.00 | 0.72 | 0.72 | 85 | 1011.9 |
| 20260506180203 | 54 | 95 | 3.0 | 5.0 | 0.00 | 0.72 | 0.72 | 86 | 1011.9 |
| 20260506180004 | 54 | 94 | 3.0 | 4.0 | 0.00 | 0.72 | 0.72 | 85 | 1011.9 |
| 20260506175803 | 54 | 93 | 3.0 | 3.0 | 0.00 | 0.72 | 0.72 | 85 | 1011.9 |
| 20260506175603 | 54 | 86 | 3.0 | 4.0 | 0.00 | 0.72 | 0.72 | 85 | 1011.8 |
| 20260506175403 | 54 | 86 | 3.0 | 4.0 | 0.00 | 0.72 | 0.72 | 85 | 1011.8 |
| 20260506175203 | 54 | 86 | 3.0 | 3.0 | 0.00 | 0.72 | 0.72 | 85 | 1011.8 |
| 20260506175016 | 54 | 82 | 3.0 | 4.0 | 0.00 | 0.72 | 0.72 | 85 | 1011.7 |
| 20260506175003 | 54 | 83 | 3.0 | 4.0 | 0.00 | 0.72 | 0.72 | 85 | 1011.7 |
| 20260506174603 | 54 | 87 | 3.0 | 6.0 | 0.00 | 0.72 | 0.72 | 84 | 1012.0 |
| 20260506174403 | 54 | 85 | 3.0 | 6.0 | 0.00 | 0.72 | 0.72 | 85 | 1012.0 |
| 20260506174203 | 55 | 83 | 3.0 | 4.0 | 0.00 | 0.72 | 0.72 | 86 | 1012.2 |
| 20260506174003 | 55 | 82 | 3.0 | 4.0 | 0.00 | 0.72 | 0.72 | 85 | 1011.8 |
| 20260506173803 | 55 | 80 | 3.0 | 3.0 | 0.00 | 0.72 | 0.72 | 86 | 1011.7 |
| 20260506173603 | 55 | 77 | 3.0 | 4.0 | 0.00 | 0.72 | 0.72 | 86 | 1011.9 |
| 20260506173404 | 55 | 78 | 3.0 | 4.0 | 0.00 | 0.72 | 0.72 | 85 | 1011.8 |
| 20260506173203 | 55 | 79 | 3.0 | 3.0 | 0.00 | 0.72 | 0.72 | 85 | 1011.9 |
| 20260506173003 | 55 | 79 | 3.0 | 4.0 | 0.00 | 0.72 | 0.72 | 86 | 1012.2 |
| 20260506172803 | 55 | 83 | 3.0 | 4.0 | 0.00 | 0.72 | 0.72 | 86 | 1011.8 |
| 20260506172603 | 55 | 84 | 3.0 | 4.0 | 0.00 | 0.72 | 0.72 | 85 | 1012.1 |
| 20260506172403 | 55 | 81 | 3.0 | 3.0 | 0.00 | 0.72 | 0.72 | 85 | 1012.2 |
| 20260506172203 | 55 | 79 | 3.0 | 4.0 | 0.00 | 0.72 | 0.72 | 85 | 1012.1 |
| 20260506172003 | 54 | 80 | 3.0 | 3.0 | 0.00 | 0.72 | 0.72 | 85 | 1012.0 |
| 20260506171803 | 55 | 76 | 3.0 | 4.0 | 0.00 | 0.72 | 0.72 | 85 | 1012.1 |
| 20260506171603 | 55 | 77 | 3.0 | 4.0 | 0.00 | 0.72 | 0.72 | 85 | 1011.9 |
| 20260506171403 | 55 | 81 | 3.0 | 4.0 | 0.00 | 0.72 | 0.72 | 85 | 1012.2 |
| 20260506171003 | 55 | 86 | 3.0 | 4.0 | 0.00 | 0.72 | 0.72 | 85 | 1011.8 |
| 20260506170803 | 55 | 87 | 3.0 | 4.0 | 0.00 | 0.72 | 0.72 | 85 | 1011.6 |
| 20260506170603 | 55 | 87 | 3.0 | 4.0 | 0.00 | 0.72 | 0.72 | 84 | 1011.7 |
| 20260506170203 | 55 | 81 | 3.0 | 4.0 | 0.00 | 0.72 | 0.72 | 84 | 1011.7 |
| 20260506170003 | 55 | 77 | 3.0 | 4.0 | 0.00 | 0.72 | 0.72 | 85 | 1011.6 |
| 20260506165817 | 55 | 75 | 3.0 | 4.0 | 0.00 | 0.72 | 0.72 | 84 | 1011.6 |
| 20260506165803 | 55 | 75 | 3.0 | 5.0 | 0.00 | 0.72 | 0.72 | 84 | 1011.6 |
| 20260506165403 | 55 | 76 | 3.0 | 3.0 | 0.00 | 0.72 | 0.72 | 85 | 1011.6 |
| 20260506165203 | 55 | 77 | 3.0 | 4.0 | 0.00 | 0.72 | 0.72 | 85 | 1011.8 |
| 20260506165003 | 55 | 81 | 3.0 | 5.0 | 0.00 | 0.72 | 0.72 | 85 | 1011.6 |
| 20260506164803 | 55 | 84 | 3.0 | 4.0 | 0.00 | 0.72 | 0.72 | 84 | 1011.5 |
| 20260506164603 | 55 | 84 | 3.0 | 5.0 | 0.00 | 0.72 | 0.72 | 85 | 1011.5 |
| 20260506164203 | 55 | 81 | 3.0 | 4.0 | 0.00 | 0.72 | 0.72 | 86 | 1011.3 |
| 20260506164003 | 55 | 82 | 3.0 | 4.0 | 0.00 | 0.72 | 0.72 | 85 | 1011.5 |
| 20260506163803 | 55 | 78 | 3.0 | 4.0 | 0.00 | 0.72 | 0.72 | 86 | 1011.7 |
| 20260506163603 | 55 | 76 | 3.0 | 5.0 | 0.00 | 0.72 | 0.72 | 85 | 1011.5 |
| 20260506163403 | 55 | 81 | 3.0 | 5.0 | 0.00 | 0.72 | 0.72 | 85 | 1011.8 |
| 20260506163203 | 55 | 82 | 3.0 | 5.0 | 0.00 | 0.72 | 0.72 | 86 | 1011.7 |
| 20260506163003 | 55 | 82 | 3.0 | 4.0 | 0.00 | 0.72 | 0.72 | 85 | 1011.6 |
| 20260506162817 | 56 | 90 | 3.0 | 4.0 | 0.00 | 0.72 | 0.72 | 85 | 1011.6 |
| 20260506162803 | 56 | 91 | 3.0 | 4.0 | 0.00 | 0.72 | 0.72 | 85 | 1011.6 |
| 20260506162618 | 56 | 95 | 3.0 | 6.0 | 0.00 | 0.72 | 0.72 | 85 | 1011.5 |
| 20260506162203 | 56 | 97 | 3.0 | 3.0 | 0.00 | 0.72 | 0.72 | 86 | 1011.6 |
| 20260506162003 | 56 | 95 | 3.0 | 5.0 | 0.00 | 0.72 | 0.72 | 85 | 1011.5 |
| 20260506161803 | 56 | 87 | 3.0 | 5.0 | 0.00 | 0.72 | 0.72 | 85 | 1011.6 |
| 20260506161603 | 56 | 81 | 3.0 | 3.0 | 0.00 | 0.72 | 0.72 | 85 | 1011.5 |
| 20260506161403 | 56 | 78 | 3.0 | 3.0 | 0.00 | 0.72 | 0.72 | 85 | 1011.5 |
| 20260506161203 | 55 | 77 | 3.0 | 3.0 | 0.00 | 0.72 | 0.72 | 85 | 1011.4 |
| 20260506161004 | 55 | 79 | 3.0 | 3.0 | 0.00 | 0.72 | 0.72 | 84 | 1011.5 |
| 20260506160803 | 56 | 74 | 3.0 | 4.0 | 0.00 | 0.72 | 0.72 | 84 | 1011.5 |
| 20260506160603 | 56 | 78 | 3.0 | 5.0 | 0.00 | 0.72 | 0.72 | 84 | 1011.6 |
| 20260506160403 | 56 | 76 | 3.0 | 4.0 | 0.00 | 0.72 | 0.72 | 84 | 1011.8 |
| 20260506160203 | 56 | 78 | 3.0 | 4.0 | 0.00 | 0.72 | 0.72 | 84 | 1011.6 |
| 20260506160003 | 56 | 80 | 3.0 | 6.0 | 0.00 | 0.72 | 0.72 | 83 | 1011.6 |
| 20260506155803 | 56 | 87 | 3.0 | 4.0 | 0.00 | 0.72 | 0.72 | 84 | 1011.5 |
| 20260506155618 | 56 | 86 | 3.0 | 4.0 | 0.00 | 0.72 | 0.72 | 84 | 1011.7 |
| 20260506155603 | 56 | 87 | 3.0 | 4.0 | 0.00 | 0.72 | 0.72 | 84 | 1011.7 |
| 20260506155216 | 56 | 87 | 3.0 | 4.0 | 0.00 | 0.72 | 0.72 | 83 | 1011.7 |
| 20260506155203 | 56 | 85 | 3.0 | 4.0 | 0.00 | 0.72 | 0.72 | 83 | 1011.7 |
| 20260506154817 | 56 | 83 | 3.0 | 3.0 | 0.00 | 0.72 | 0.72 | 83 | 1011.5 |
| 20260506154803 | 56 | 83 | 3.0 | 4.0 | 0.00 | 0.72 | 0.72 | 83 | 1011.5 |
| 20260506154403 | 56 | 81 | 3.0 | 3.0 | 0.00 | 0.72 | 0.72 | 85 | 1011.7 |
| 20260506154203 | 56 | 84 | 3.0 | 4.0 | 0.00 | 0.72 | 0.72 | 86 | 1011.7 |
| 20260506154017 | 56 | 83 | 3.0 | 4.0 | 0.00 | 0.72 | 0.72 | 85 | 1011.4 |
| 20260506154003 | 56 | 82 | 3.0 | 4.0 | 0.00 | 0.72 | 0.72 | 85 | 1011.4 |
| 20260506153603 | 56 | 76 | 3.0 | 3.0 | 0.00 | 0.72 | 0.72 | 86 | 1011.6 |
| 20260506153417 | 56 | 78 | 3.0 | 4.0 | 0.00 | 0.72 | 0.72 | 86 | 1011.6 |
| 20260506153403 | 56 | 77 | 3.0 | 4.0 | 0.00 | 0.72 | 0.72 | 86 | 1011.6 |
| 20260506153003 | 56 | 82 | 3.0 | 4.0 | 0.00 | 0.72 | 0.72 | 86 | 1011.8 |
| 20260506152803 | 56 | 88 | 3.0 | 6.0 | 0.00 | 0.72 | 0.72 | 85 | 1011.6 |
| 20260506152618 | 56 | 94 | 3.0 | 5.0 | 0.00 | 0.72 | 0.72 | 85 | 1012.0 |
| 20260506152603 | 56 | 93 | 3.0 | 5.0 | 0.00 | 0.72 | 0.72 | 85 | 1012.0 |
| 20260506152203 | 56 | 90 | 3.0 | 4.0 | 0.00 | 0.72 | 0.72 | 86 | 1012.0 |
| 20260506152003 | 56 | 88 | 3.0 | 6.0 | 0.00 | 0.72 | 0.72 | 85 | 1011.6 |
| 20260506151803 | 56 | 87 | 3.0 | 4.0 | 0.00 | 0.72 | 0.72 | 85 | 1011.7 |
| 20260506151603 | 56 | 86 | 3.0 | 5.0 | 0.00 | 0.72 | 0.72 | 86 | 1011.8 |
| 20260506151403 | 56 | 81 | 3.0 | 4.0 | 0.00 | 0.72 | 0.72 | 85 | 1011.9 |
| 20260506151203 | 56 | 87 | 3.0 | 5.0 | 0.00 | 0.72 | 0.72 | 85 | 1011.7 |
| 20260506151003 | 56 | 90 | 3.0 | 4.0 | 0.00 | 0.72 | 0.72 | 85 | 1011.8 |
| 20260506150803 | 56 | 93 | 3.0 | 4.0 | 0.00 | 0.72 | 0.72 | 85 | 1011.7 |
| 20260506150603 | 56 | 88 | 3.0 | 4.0 | 0.00 | 0.72 | 0.72 | 85 | 1011.6 |
| 20260506150203 | 56 | 90 | 3.0 | 4.0 | 0.00 | 0.72 | 0.72 | 84 | 1011.8 |
| 20260506150003 | 56 | 86 | 3.0 | 4.0 | 0.00 | 0.72 | 0.72 | 83 | 1011.6 |
| 20260506145803 | 57 | 84 | 3.0 | 4.0 | 0.00 | 0.72 | 0.72 | 84 | 1011.7 |
| 20260506145603 | 57 | 89 | 3.0 | 4.0 | 0.00 | 0.72 | 0.72 | 84 | 1011.9 |
| 20260506145403 | 57 | 91 | 3.0 | 4.0 | 0.00 | 0.72 | 0.72 | 82 | 1011.7 |
| 20260506145203 | 58 | 92 | 3.0 | 4.0 | 0.00 | 0.72 | 0.72 | 84 | 1011.9 |
| 20260506145003 | 58 | 94 | 3.0 | 4.0 | 0.00 | 0.72 | 0.72 | 82 | 1011.8 |
| 20260506144803 | 57 | 94 | 3.0 | 5.0 | 0.00 | 0.72 | 0.72 | 85 | 1011.7 |
| 20260506144617 | 56 | 95 | 3.0 | 4.0 | 0.00 | 0.72 | 0.72 | 85 | 1011.7 |
| 20260506144603 | 56 | 94 | 3.0 | 4.0 | 0.00 | 0.72 | 0.72 | 85 | 1011.7 |
| 20260506144203 | 55 | 85 | 3.0 | 5.0 | 0.00 | 0.72 | 0.72 | 87 | 1011.8 |
| 20260506144017 | 55 | 84 | 3.0 | 5.0 | 0.00 | 0.72 | 0.72 | 87 | 1011.9 |
| 20260506144003 | 55 | 85 | 3.0 | 5.0 | 0.00 | 0.72 | 0.72 | 87 | 1011.9 |
| 20260506143603 | 55 | 84 | 3.0 | 6.0 | 0.00 | 0.72 | 0.72 | 88 | 1012.0 |
| 20260506143403 | 55 | 87 | 3.0 | 5.0 | 0.00 | 0.72 | 0.72 | 88 | 1011.8 |
| 20260506143203 | 55 | 90 | 3.0 | 3.0 | 0.00 | 0.72 | 0.72 | 88 | 1012.1 |
| 20260506143003 | 55 | 91 | 3.0 | 4.0 | 0.00 | 0.72 | 0.72 | 88 | 1012.0 |
| 20260506142803 | 55 | 88 | 3.0 | 3.0 | 0.00 | 0.72 | 0.72 | 88 | 1011.8 |
| 20260506142603 | 55 | 86 | 3.0 | 4.0 | 0.00 | 0.72 | 0.72 | 89 | 1011.9 |
| 20260506142403 | 55 | 86 | 3.0 | 4.0 | 0.00 | 0.72 | 0.72 | 89 | 1011.7 |
| 20260506142218 | 55 | 85 | 3.0 | 4.0 | 0.00 | 0.72 | 0.72 | 88 | 1011.7 |
| 20260506142203 | 55 | 85 | 3.0 | 4.0 | 0.00 | 0.72 | 0.72 | 88 | 1011.7 |
| 20260506141803 | 56 | 86 | 3.0 | 3.0 | 0.00 | 0.72 | 0.72 | 88 | 1011.6 |
| 20260506141617 | 56 | 88 | 3.0 | 3.0 | 0.00 | 0.72 | 0.72 | 88 | 1011.7 |
| 20260506141603 | 56 | 87 | 3.0 | 3.0 | 0.00 | 0.72 | 0.72 | 88 | 1011.7 |
| 20260506141203 | 56 | 91 | 3.0 | 4.0 | 0.00 | 0.72 | 0.72 | 86 | 1011.8 |
| 20260506141003 | 56 | 90 | 3.0 | 3.0 | 0.00 | 0.72 | 0.72 | 88 | 1011.8 |
| 20260506140803 | 56 | 92 | 3.0 | 3.0 | 0.00 | 0.72 | 0.72 | 87 | 1011.8 |
| 20260506140603 | 56 | 95 | 3.0 | 4.0 | 0.00 | 0.72 | 0.72 | 86 | 1011.7 |
| 20260506140403 | 56 | 92 | 3.0 | 5.0 | 0.00 | 0.72 | 0.72 | 86 | 1011.8 |
| 20260506140203 | 56 | 88 | 3.0 | 4.0 | 0.00 | 0.72 | 0.72 | 88 | 1011.9 |
| 20260506140003 | 56 | 85 | 3.0 | 5.0 | 0.00 | 0.72 | 0.72 | 88 | 1011.8 |
| 20260506135803 | 56 | 89 | 3.0 | 4.0 | 0.00 | 0.72 | 0.72 | 87 | 1011.7 |
| 20260506135603 | 55 | 88 | 3.0 | 5.0 | 0.00 | 0.72 | 0.72 | 87 | 1011.8 |
| 20260506135403 | 55 | 92 | 3.0 | 4.0 | 0.00 | 0.72 | 0.72 | 86 | 1011.9 |
| 20260506135218 | 55 | 92 | 3.0 | 4.0 | 0.00 | 0.72 | 0.72 | 87 | 1011.7 |
| 20260506135203 | 55 | 92 | 3.0 | 4.0 | 0.00 | 0.72 | 0.72 | 87 | 1011.7 |
| 20260506134803 | 56 | 86 | 3.0 | 8.0 | 0.00 | 0.72 | 0.72 | 86 | 1011.8 |
| 20260506134603 | 56 | 87 | 3.0 | 6.0 | 0.00 | 0.72 | 0.72 | 86 | 1011.9 |
| 20260506134403 | 56 | 81 | 3.0 | 3.0 | 0.00 | 0.72 | 0.72 | 87 | 1011.7 |
| 20260506134218 | 56 | 85 | 3.0 | 5.0 | 0.00 | 0.72 | 0.72 | 87 | 1011.6 |
| 20260506134203 | 56 | 86 | 3.0 | 5.0 | 0.00 | 0.72 | 0.72 | 87 | 1011.6 |
| 20260506133803 | 55 | 93 | 3.0 | 4.0 | 0.00 | 0.72 | 0.72 | 88 | 1011.6 |
| 20260506133603 | 55 | 89 | 3.0 | 4.0 | 0.00 | 0.72 | 0.72 | 87 | 1011.8 |
| 20260506133403 | 56 | 94 | 3.0 | 5.0 | 0.00 | 0.72 | 0.72 | 87 | 1011.5 |
| 20260506133203 | 55 | 91 | 3.0 | 4.0 | 0.00 | 0.72 | 0.72 | 87 | 1011.6 |
| 20260506133003 | 56 | 91 | 3.0 | 5.0 | 0.00 | 0.72 | 0.72 | 86 | 1011.8 |
| 20260506132803 | 56 | 89 | 3.0 | 6.0 | 0.00 | 0.72 | 0.72 | 87 | 1011.6 |
| 20260506132603 | 56 | 92 | 3.0 | 8.0 | 0.00 | 0.72 | 0.72 | 86 | 1011.6 |
| 20260506132416 | 56 | 93 | 3.0 | 5.0 | 0.00 | 0.72 | 0.72 | 85 | 1011.6 |
| 20260506132403 | 56 | 92 | 3.0 | 5.0 | 0.00 | 0.72 | 0.72 | 86 | 1011.6 |
| 20260506132003 | 56 | 88 | 3.0 | 4.0 | 0.00 | 0.72 | 0.72 | 86 | 1011.5 |
| 20260506131803 | 56 | 90 | 3.0 | 4.0 | 0.00 | 0.72 | 0.72 | 85 | 1011.3 |
| 20260506131603 | 56 | 92 | 3.0 | 5.0 | 0.00 | 0.72 | 0.72 | 84 | 1011.3 |
| 20260506131403 | 56 | 92 | 3.0 | 4.0 | 0.00 | 0.72 | 0.72 | 86 | 1011.6 |
| 20260506131203 | 56 | 94 | 3.0 | 7.0 | 0.00 | 0.72 | 0.72 | 85 | 1011.8 |
| 20260506131003 | 56 | 98 | 3.0 | 4.0 | 0.00 | 0.72 | 0.72 | 85 | 1011.7 |
| 20260506130803 | 56 | 97 | 3.0 | 5.0 | 0.00 | 0.72 | 0.72 | 85 | 1011.5 |
| 20260506130617 | 56 | 95 | 3.0 | 4.0 | 0.00 | 0.72 | 0.72 | 86 | 1011.8 |
| 20260506130603 | 56 | 95 | 3.0 | 4.0 | 0.00 | 0.72 | 0.72 | 86 | 1011.8 |
| 20260506130217 | 55 | 91 | 3.0 | 5.0 | 0.00 | 0.72 | 0.72 | 87 | 1011.6 |
| 20260506130203 | 55 | 91 | 3.0 | 5.0 | 0.00 | 0.72 | 0.72 | 87 | 1011.6 |
| 20260506130016 | 55 | 91 | 3.0 | 4.0 | 0.00 | 0.72 | 0.72 | 88 | 1011.7 |
| 20260506125603 | 55 | 89 | 3.0 | 4.0 | 0.00 | 0.72 | 0.72 | 88 | 1011.8 |
| 20260506125418 | 55 | 85 | 3.0 | 4.0 | 0.00 | 0.72 | 0.72 | 87 | 1011.6 |
| 20260506125403 | 55 | 85 | 3.0 | 5.0 | 0.00 | 0.72 | 0.72 | 87 | 1011.6 |
| 20260506125003 | 55 | 90 | 3.0 | 4.0 | 0.00 | 0.72 | 0.72 | 87 | 1011.7 |
| 20260506124803 | 55 | 88 | 3.0 | 3.0 | 0.00 | 0.72 | 0.72 | 88 | 1011.7 |
| 20260506124603 | 55 | 87 | 3.0 | 4.0 | 0.00 | 0.72 | 0.72 | 90 | 1011.8 |
| 20260506124403 | 54 | 88 | 3.0 | 4.0 | 0.00 | 0.72 | 0.72 | 89 | 1011.8 |
| 20260506124203 | 54 | 85 | 3.0 | 5.0 | 0.00 | 0.72 | 0.72 | 88 | 1011.7 |
| 20260506124003 | 55 | 81 | 3.0 | 4.0 | 0.00 | 0.72 | 0.72 | 88 | 1011.8 |
| 20260506123803 | 55 | 82 | 3.0 | 4.0 | 0.00 | 0.72 | 0.72 | 88 | 1011.6 |
| 20260506123603 | 55 | 82 | 3.0 | 4.0 | 0.00 | 0.72 | 0.72 | 89 | 1011.6 |
| 20260506123403 | 55 | 81 | 3.0 | 4.0 | 0.00 | 0.72 | 0.72 | 89 | 1011.7 |
| 20260506123217 | 55 | 76 | 3.0 | 4.0 | 0.00 | 0.72 | 0.72 | 89 | 1011.5 |
| 20260506123203 | 55 | 76 | 3.0 | 4.0 | 0.00 | 0.72 | 0.72 | 89 | 1011.5 |
| 20260506122803 | 55 | 70 | 3.0 | 3.0 | 0.00 | 0.72 | 0.72 | 89 | 1011.7 |
| 20260506122603 | 55 | 72 | 3.0 | 4.0 | 0.00 | 0.72 | 0.72 | 88 | 1011.8 |
| 20260506122403 | 55 | 71 | 3.0 | 6.0 | 0.00 | 0.72 | 0.72 | 87 | 1011.7 |
| 20260506122203 | 55 | 79 | 3.0 | 3.0 | 0.00 | 0.72 | 0.72 | 88 | 1011.9 |
| 20260506122003 | 55 | 79 | 3.0 | 6.0 | 0.00 | 0.72 | 0.72 | 87 | 1011.9 |
| 20260506121803 | 55 | 89 | 3.0 | 5.0 | 0.00 | 0.72 | 0.72 | 88 | 1011.6 |
| 20260506121603 | 55 | 85 | 3.0 | 4.0 | 0.00 | 0.72 | 0.72 | 89 | 1011.7 |
| 20260506121403 | 55 | 84 | 3.0 | 4.0 | 0.00 | 0.72 | 0.72 | 87 | 1011.8 |
| 20260506121203 | 55 | 83 | 3.0 | 5.0 | 0.00 | 0.72 | 0.72 | 88 | 1011.4 |
| 20260506121003 | 54 | 86 | 3.0 | 5.0 | 0.00 | 0.72 | 0.72 | 88 | 1011.7 |
| 20260506120803 | 54 | 84 | 3.0 | 4.0 | 0.00 | 0.72 | 0.72 | 88 | 1011.8 |
| 20260506120603 | 54 | 85 | 3.0 | 4.0 | 0.00 | 0.72 | 0.72 | 89 | 1011.6 |
| 20260506120403 | 54 | 88 | 3.0 | 5.0 | 0.00 | 0.72 | 0.72 | 89 | 1011.5 |
| 20260506120203 | 54 | 85 | 3.0 | 3.0 | 0.00 | 0.72 | 0.72 | 89 | 1011.8 |
| 20260506120003 | 54 | 87 | 3.0 | 5.0 | 0.00 | 0.72 | 0.72 | 89 | 1011.6 |
| 20260506115803 | 54 | 82 | 3.0 | 5.0 | 0.00 | 0.72 | 0.72 | 89 | 1011.6 |
| 20260506115616 | 54 | 85 | 3.0 | 5.0 | 0.00 | 0.72 | 0.72 | 90 | 1011.6 |
| 20260506115603 | 54 | 85 | 3.0 | 6.0 | 0.00 | 0.72 | 0.72 | 89 | 1011.6 |
| 20260506115203 | 54 | 88 | 3.0 | 4.0 | 0.00 | 0.72 | 0.72 | 90 | 1011.4 |
| 20260506114803 | 54 | 94 | 3.0 | 3.0 | 0.00 | 0.72 | 0.72 | 91 | 1011.7 |
| 20260506114603 | 55 | 95 | 3.0 | 5.0 | 0.00 | 0.72 | 0.72 | 90 | 1011.4 |
| 20260506114418 | 54 | 95 | 3.0 | 4.0 | 0.00 | 0.72 | 0.72 | 91 | 1011.6 |
| 20260506114403 | 54 | 96 | 3.0 | 4.0 | 0.00 | 0.72 | 0.72 | 91 | 1011.6 |
| 20260506114003 | 54 | 95 | 3.0 | 4.0 | 0.00 | 0.72 | 0.72 | 90 | 1011.7 |
| 20260506113803 | 54 | 92 | 3.0 | 4.0 | 0.00 | 0.72 | 0.72 | 91 | 1011.6 |
| 20260506113603 | 54 | 92 | 3.0 | 6.0 | 0.00 | 0.72 | 0.72 | 91 | 1011.3 |
| 20260506113403 | 54 | 91 | 3.0 | 4.0 | 0.00 | 0.72 | 0.72 | 91 | 1011.4 |
| 20260506113203 | 54 | 94 | 3.0 | 3.0 | 0.00 | 0.72 | 0.72 | 92 | 1011.6 |
| 20260506113003 | 54 | 95 | 3.0 | 4.0 | 0.00 | 0.72 | 0.72 | 92 | 1011.7 |
| 20260506112803 | 54 | 94 | 3.0 | 4.0 | 0.00 | 0.72 | 0.72 | 92 | 1011.3 |
| 20260506112603 | 54 | 93 | 3.0 | 4.0 | 0.00 | 0.72 | 0.72 | 92 | 1011.3 |
| 20260506112403 | 54 | 90 | 3.0 | 4.0 | 0.00 | 0.72 | 0.72 | 92 | 1011.4 |
| 20260506112203 | 53 | 85 | 3.0 | 3.0 | 0.00 | 0.72 | 0.72 | 92 | 1011.3 |
| 20260506112003 | 53 | 86 | 3.0 | 4.0 | 0.00 | 0.72 | 0.72 | 92 | 1011.5 |
| 20260506111803 | 53 | 88 | 3.0 | 4.0 | 0.00 | 0.72 | 0.72 | 92 | 1011.0 |
| 20260506111603 | 53 | 89 | 3.0 | 4.0 | 0.00 | 0.72 | 0.72 | 92 | 1011.3 |
| 20260506111403 | 53 | 89 | 3.0 | 4.0 | 0.00 | 0.72 | 0.72 | 92 | 1011.4 |
| 20260506111203 | 53 | 92 | 3.0 | 4.0 | 0.00 | 0.72 | 0.72 | 92 | 1011.3 |
| 20260506111003 | 53 | 92 | 3.0 | 4.0 | 0.00 | 0.72 | 0.72 | 93 | 1011.4 |
| 20260506110803 | 53 | 90 | 3.0 | 4.0 | 0.00 | 0.72 | 0.72 | 92 | 1011.2 |
| 20260506110603 | 53 | 89 | 3.0 | 3.0 | 0.00 | 0.72 | 0.72 | 92 | 1011.2 |
| 20260506110403 | 53 | 91 | 3.0 | 6.0 | 0.00 | 0.72 | 0.72 | 92 | 1011.3 |
| 20260506110203 | 53 | 91 | 3.0 | 4.0 | 0.00 | 0.72 | 0.72 | 92 | 1011.0 |
| 20260506110003 | 53 | 87 | 3.0 | 3.0 | 0.00 | 0.72 | 0.72 | 92 | 1011.0 |
| 20260506105803 | 54 | 89 | 3.0 | 3.0 | 0.00 | 0.72 | 0.72 | 93 | 1011.1 |
| 20260506105603 | 54 | 89 | 3.0 | 4.0 | 0.00 | 0.72 | 0.72 | 93 | 1011.2 |
| 20260506105403 | 54 | 89 | 3.0 | 5.0 | 0.00 | 0.72 | 0.72 | 93 | 1011.0 |
| 20260506105203 | 54 | 88 | 3.0 | 4.0 | 0.00 | 0.72 | 0.72 | 93 | 1011.0 |
| 20260506105018 | 53 | 93 | 3.0 | 4.0 | 0.00 | 0.72 | 0.72 | 93 | 1011.0 |
| 20260506105003 | 53 | 93 | 3.0 | 4.0 | 0.00 | 0.72 | 0.72 | 93 | 1011.0 |
| 20260506104817 | 53 | 91 | 3.0 | 3.0 | 0.00 | 0.72 | 0.72 | 93 | 1011.3 |
| 20260506104403 | 53 | 92 | 3.0 | 4.0 | 0.00 | 0.72 | 0.72 | 93 | 1011.0 |
| 20260506104216 | 53 | 93 | 3.0 | 4.0 | 0.00 | 0.72 | 0.72 | 93 | 1011.0 |
| 20260506104203 | 53 | 92 | 3.0 | 4.0 | 0.00 | 0.72 | 0.72 | 93 | 1011.0 |
| 20260506103803 | 53 | 94 | 3.0 | 4.0 | 0.00 | 0.72 | 0.72 | 93 | 1011.0 |
| 20260506103603 | 53 | 96 | 3.0 | 4.0 | 0.00 | 0.72 | 0.72 | 93 | 1010.9 |
| 20260506103417 | 53 | 95 | 3.0 | 4.0 | 0.00 | 0.72 | 0.72 | 92 | 1011.2 |
| 20260506103403 | 53 | 95 | 3.0 | 5.0 | 0.00 | 0.72 | 0.72 | 92 | 1011.2 |
| 20260506103003 | 53 | 93 | 3.0 | 4.0 | 0.00 | 0.72 | 0.72 | 93 | 1011.0 |
| 20260506102803 | 54 | 94 | 3.0 | 6.0 | 0.00 | 0.72 | 0.72 | 93 | 1010.8 |
| 20260506102603 | 54 | 91 | 3.0 | 4.0 | 0.00 | 0.72 | 0.72 | 93 | 1011.0 |
| 20260506102203 | 53 | 95 | 3.0 | 3.0 | 0.00 | 0.72 | 0.72 | 93 | 1011.0 |
| 20260506102003 | 53 | 93 | 4.0 | 5.0 | 0.00 | 0.72 | 0.72 | 93 | 1010.8 |
| 20260506101803 | 53 | 92 | 4.0 | 4.0 | 0.00 | 0.72 | 0.72 | 93 | 1010.9 |
| 20260506101603 | 53 | 92 | 4.0 | 7.0 | 0.00 | 0.72 | 0.72 | 93 | 1010.6 |
| 20260506101417 | 53 | 94 | 4.0 | 5.0 | 0.00 | 0.72 | 0.72 | 93 | 1010.7 |
| 20260506101403 | 53 | 93 | 4.0 | 5.0 | 0.00 | 0.72 | 0.72 | 93 | 1010.7 |
| 20260506101216 | 53 | 94 | 3.0 | 4.0 | 0.00 | 0.72 | 0.72 | 93 | 1010.8 |
| 20260506100803 | 53 | 97 | 3.0 | 6.0 | 0.00 | 0.72 | 0.72 | 93 | 1010.7 |
| 20260506100603 | 53 | 98 | 3.0 | 5.0 | 0.00 | 0.72 | 0.72 | 93 | 1010.9 |
| 20260506100417 | 53 | 97 | 3.0 | 4.0 | 0.00 | 0.72 | 0.72 | 93 | 1010.8 |
| 20260506100403 | 53 | 96 | 3.0 | 4.0 | 0.00 | 0.72 | 0.72 | 93 | 1010.8 |
| 20260506100003 | 54 | 97 | 3.0 | 7.0 | 0.00 | 0.72 | 0.72 | 94 | 1010.9 |
| 20260506095817 | 54 | 96 | 3.0 | 3.0 | 0.00 | 0.72 | 0.72 | 94 | 1010.7 |
| 20260506095803 | 53 | 96 | 3.0 | 4.0 | 0.00 | 0.72 | 0.72 | 94 | 1010.7 |
| 20260506095417 | 54 | 98 | 3.0 | 3.0 | 0.00 | 0.72 | 0.72 | 94 | 1010.9 |
| 20260506095403 | 54 | 98 | 3.0 | 3.0 | 0.00 | 0.72 | 0.72 | 94 | 1010.9 |
| 20260506095003 | 53 | 95 | 3.0 | 4.0 | 0.00 | 0.72 | 0.72 | 94 | 1010.5 |
| 20260506094803 | 53 | 93 | 3.0 | 4.0 | 0.00 | 0.72 | 0.72 | 94 | 1010.6 |
| 20260506094603 | 53 | 93 | 3.0 | 4.0 | 0.00 | 0.72 | 0.72 | 94 | 1010.7 |
| 20260506094417 | 53 | 89 | 3.0 | 4.0 | 0.00 | 0.72 | 0.72 | 94 | 1010.6 |
| 20260506094403 | 53 | 89 | 3.0 | 4.0 | 0.00 | 0.72 | 0.72 | 94 | 1010.6 |
| 20260506094218 | 53 | 90 | 3.0 | 4.0 | 0.00 | 0.72 | 0.72 | 94 | 1010.8 |
| 20260506093816 | 53 | 91 | 2.0 | 5.0 | 0.01 | 0.72 | 0.72 | 94 | 1010.7 |
| 20260506093803 | 53 | 91 | 2.0 | 5.0 | 0.01 | 0.72 | 0.72 | 94 | 1010.7 |
| 20260506093403 | 53 | 96 | 3.0 | 3.0 | 0.01 | 0.72 | 0.72 | 94 | 1010.7 |
| 20260506093203 | 53 | 100 | 3.0 | 3.0 | 0.01 | 0.72 | 0.72 | 94 | 1010.5 |
| 20260506093003 | 53 | 101 | 3.0 | 4.0 | 0.01 | 0.72 | 0.72 | 94 | 1010.5 |
| 20260506092803 | 53 | 100 | 3.0 | 5.0 | 0.01 | 0.72 | 0.72 | 95 | 1010.5 |
| 20260506092603 | 53 | 101 | 3.0 | 4.0 | 0.01 | 0.72 | 0.72 | 95 | 1010.5 |
| 20260506092417 | 53 | 101 | 3.0 | 6.0 | 0.02 | 0.72 | 0.72 | 95 | 1010.5 |
| 20260506092403 | 53 | 102 | 3.0 | 6.0 | 0.02 | 0.72 | 0.72 | 95 | 1010.5 |
| 20260506092003 | 52 | 103 | 3.0 | 4.0 | 0.02 | 0.72 | 0.72 | 95 | 1010.7 |
| 20260506091803 | 52 | 102 | 3.0 | 6.0 | 0.02 | 0.72 | 0.72 | 95 | 1010.4 |
| 20260506091603 | 52 | 98 | 3.0 | 4.0 | 0.02 | 0.72 | 0.72 | 94 | 1010.4 |
| 20260506091403 | 52 | 94 | 3.0 | 5.0 | 0.02 | 0.72 | 0.72 | 94 | 1010.4 |
| 20260506091218 | 53 | 90 | 3.0 | 4.0 | 0.02 | 0.72 | 0.72 | 95 | 1010.2 |
| 20260506091203 | 53 | 88 | 3.0 | 4.0 | 0.02 | 0.72 | 0.72 | 95 | 1010.2 |
| 20260506090803 | 53 | 89 | 3.0 | 4.0 | 0.02 | 0.72 | 0.72 | 95 | 1010.4 |
| 20260506090603 | 53 | 94 | 3.0 | 5.0 | 0.02 | 0.72 | 0.72 | 95 | 1010.2 |
| 20260506090403 | 52 | 94 | 3.0 | 4.0 | 0.02 | 0.72 | 0.72 | 95 | 1010.6 |
| 20260506090203 | 53 | 97 | 3.0 | 5.0 | 0.02 | 0.72 | 0.72 | 95 | 1010.5 |
| 20260506090003 | 52 | 96 | 3.0 | 4.0 | 0.02 | 0.72 | 0.72 | 94 | 1010.4 |
| 20260506085803 | 53 | 96 | 3.0 | 5.0 | 0.02 | 0.72 | 0.72 | 95 | 1010.3 |
| 20260506085603 | 53 | 94 | 3.0 | 5.0 | 0.02 | 0.72 | 0.72 | 95 | 1010.1 |
| 20260506085403 | 53 | 94 | 3.0 | 4.0 | 0.02 | 0.72 | 0.72 | 95 | 1010.3 |
| 20260506085203 | 53 | 91 | 3.0 | 5.0 | 0.02 | 0.72 | 0.72 | 95 | 1010.2 |
| 20260506085003 | 53 | 96 | 3.0 | 4.0 | 0.02 | 0.72 | 0.71 | 95 | 1010.2 |
| 20260506084803 | 53 | 93 | 3.0 | 4.0 | 0.02 | 0.72 | 0.71 | 96 | 1010.1 |
| 20260506084603 | 53 | 96 | 3.0 | 4.0 | 0.02 | 0.72 | 0.71 | 96 | 1010.1 |
| 20260506084403 | 53 | 98 | 3.0 | 4.0 | 0.03 | 0.72 | 0.71 | 96 | 1010.0 |
| 20260506084203 | 53 | 99 | 3.0 | 5.0 | 0.03 | 0.72 | 0.71 | 96 | 1010.0 |
| 20260506084003 | 52 | 99 | 3.0 | 4.0 | 0.02 | 0.71 | 0.71 | 96 | 1010.0 |
| 20260506083803 | 53 | 103 | 3.0 | 4.0 | 0.02 | 0.71 | 0.71 | 96 | 1010.1 |
| 20260506083603 | 53 | 98 | 3.0 | 4.0 | 0.02 | 0.71 | 0.71 | 96 | 1010.1 |
| 20260506083403 | 52 | 101 | 3.0 | 4.0 | 0.03 | 0.71 | 0.71 | 96 | 1010.0 |
| 20260506083217 | 52 | 103 | 3.0 | 4.0 | 0.02 | 0.71 | 0.70 | 96 | 1010.0 |
| 20260506083203 | 52 | 101 | 3.0 | 4.0 | 0.02 | 0.71 | 0.70 | 96 | 1010.0 |
| 20260506083017 | 52 | 103 | 3.0 | 4.0 | 0.02 | 0.71 | 0.70 | 96 | 1010.2 |
| 20260506082603 | 52 | 106 | 3.0 | 4.0 | 0.03 | 0.71 | 0.70 | 96 | 1010.1 |
| 20260506082416 | 52 | 102 | 3.0 | 4.0 | 0.02 | 0.70 | 0.70 | 96 | 1010.2 |
| 20260506082403 | 52 | 102 | 3.0 | 4.0 | 0.02 | 0.70 | 0.70 | 96 | 1010.2 |
| 20260506082003 | 52 | 99 | 3.0 | 5.0 | 0.03 | 0.70 | 0.70 | 96 | 1009.9 |
| 20260506081803 | 52 | 98 | 3.0 | 4.0 | 0.03 | 0.70 | 0.70 | 96 | 1010.1 |
| 20260506081603 | 52 | 98 | 3.0 | 3.0 | 0.03 | 0.70 | 0.70 | 96 | 1010.2 |
| 20260506081403 | 52 | 97 | 3.0 | 4.0 | 0.03 | 0.70 | 0.70 | 96 | 1010.0 |
| 20260506081217 | 52 | 96 | 3.0 | 5.0 | 0.03 | 0.70 | 0.70 | 96 | 1010.0 |
| 20260506081203 | 52 | 96 | 3.0 | 6.0 | 0.03 | 0.70 | 0.70 | 96 | 1010.0 |
| 20260506080803 | 52 | 95 | 3.0 | 4.0 | 0.04 | 0.70 | 0.70 | 96 | 1010.1 |
| 20260506080603 | 52 | 95 | 3.0 | 3.0 | 0.04 | 0.70 | 0.70 | 96 | 1010.2 |
| 20260506080417 | 52 | 97 | 3.0 | 4.0 | 0.04 | 0.70 | 0.70 | 96 | 1010.1 |
| 20260506080403 | 52 | 98 | 3.0 | 4.0 | 0.04 | 0.70 | 0.70 | 96 | 1010.1 |
| 20260506073403 | 52 | 93 | 3.0 | 4.0 | 0.06 | 0.69 | 0.68 | 96 | 1009.7 |
| 20260506073203 | 52 | 90 | 3.0 | 4.0 | 0.07 | 0.69 | 0.68 | 96 | 1009.8 |
| 20260506073003 | 52 | 90 | 3.0 | 3.0 | 0.07 | 0.69 | 0.68 | 96 | 1009.8 |
| 20260506072803 | 52 | 93 | 3.0 | 4.0 | 0.07 | 0.69 | 0.68 | 96 | 1009.7 |
| 20260506072603 | 52 | 94 | 3.0 | 4.0 | 0.08 | 0.69 | 0.68 | 96 | 1009.8 |
| 20260506072403 | 52 | 96 | 3.0 | 4.0 | 0.09 | 0.69 | 0.68 | 96 | 1009.7 |
| 20260506072203 | 52 | 103 | 3.0 | 4.0 | 0.09 | 0.68 | 0.67 | 96 | 1009.7 |
| 20260506072003 | 52 | 103 | 3.0 | 3.0 | 0.09 | 0.68 | 0.67 | 96 | 1009.8 |
| 20260506071803 | 52 | 104 | 3.0 | 3.0 | 0.09 | 0.68 | 0.67 | 96 | 1009.5 |
| 20260506071603 | 52 | 103 | 3.0 | 3.0 | 0.10 | 0.68 | 0.67 | 96 | 1009.7 |
| 20260506071403 | 52 | 102 | 3.0 | 4.0 | 0.10 | 0.68 | 0.67 | 96 | 1009.8 |
| 20260506071203 | 52 | 96 | 3.0 | 3.0 | 0.11 | 0.67 | 0.67 | 97 | 1009.8 |
| 20260506071003 | 52 | 99 | 3.0 | 4.0 | 0.11 | 0.67 | 0.66 | 97 | 1009.5 |
| 20260506070803 | 52 | 94 | 3.0 | 4.0 | 0.11 | 0.67 | 0.66 | 97 | 1009.5 |
| 20260506070603 | 52 | 96 | 3.0 | 4.0 | 0.11 | 0.67 | 0.66 | 97 | 1009.7 |